Location: Prague
(50.0830°N, 14.4670°E)
Time: 19:06:24
(UTC+02:00)

ISS - Pass Details

Date: 02 October 2021
Orbit: 417 x 423 km, 51.6° (Epoch: 25 October)

Event Time Altitude Azimuth Distance (km) Brightness Sun altitude
Rises 21:06:36 0° 282° (WNW) 2,367 1.4 -24.1°
Reaches altitude 10° 21:09:19 10° 259° (WSW) 1,500 -0.3 -24.5°
Enters shadow 21:10:53 15° 231° (SW) 1,239 -1.1 -24.7°
